Location: Finnegan
(51.1333°N, 112.0833°W)
Time: 21:06:34
(UTC+00:00)

Envisat - Pass Details

Date: 09 December 2021
Orbit: 764 x 766 km, 98.2° (Epoch: 26 January)

Event Time Altitude Azimuth Distance (km) Brightness Sun altitude
Rises 00:21:51 0° 194° (SSW) 3,221 6.9 -8.9°
Reaches altitude 10° 00:24:25 10° 205° (SSW) 2,300 6.3 -9.3°
Maximum altitude 00:28:51 30° 266° (W) 1,348 5.1 -9.9°
Drops below altitude 10° 00:33:20 10° 328° (NNW) 2,316 5.6 -10.6°
Sets 00:35:56 0° 339° (NNW) 3,247 6.2 -11.0°
